Weather History for EGBB - November, 2013

Change the Weather History Date:

Friday, November 8, 2013

  Actual Average Record
Temperature  
Mean Temperature 42 °F -  
Max Temperature 46 °F 48 °F 55 °F (1998)
Min Temperature 39 °F 36 °F 30 °F (1996)
Degree Days  
Heating Degree Days 22    
Moisture  
Dew Point 42 °F    
Average Humidity 94    
Maximum Humidity 100    
Minimum Humidity 87    
Precipitation  
Precipitation 0.00 in 0.08 in - ()
Sea Level Pressure  
Sea Level Pressure 29.64 in    
Wind  
Wind Speed 7 mph ()    
Max Wind Speed 13 mph    
Max Gust Speed -    
Visibility 5.9 miles    
Events Rain    
Averages and records for this station are not official NWS values.
T = Trace of Precipitation, MM = Missing Value Source: Averaged Metar Reports

Daily Weather History Graph

Daily Weather History Graph

Search for Another Location

Airport or City:

Trip Planner

Search our weather history database for the weather conditions in past years. The results will help you decide how hot, cold, wet, or windy it might be!

Date:

Astronomy

Nov. 08, 2013 Rise Set
Actual Time 7:16 AM GMT 4:24 PM GMT
Civil Twilight 6:39 AM GMT 5:01 PM GMT
Nautical Twilight 5:58 AM GMT 5:42 PM GMT
Astronomical Twilight 5:18 AM GMT 6:22 PM GMT
Moon 12:03 PM GMT (11/8) 9:28 PM GMT (11/8)
Length of Visible Light 10h 22m
Length of Day
9h 08m
Waxing Crescent, 30% of the Moon is Illuminated
Nov 8
Waxing Crescent
Nov 10
First Quarter
Nov 17
Full
Nov 25
Last Quarter
Dec 3
New

Hourly Weather History & Observations

Time (GMT) Temp. Windchill Dew Point Humidity Pressure Visibility Wind Dir Wind Speed Gust Speed Precip Events Conditions
12:20 AM 42.8 °F 36.2 °F 41.0 °F 93% 29.71 in 6.2 mi SSW 12.7 mph - N/A   Unknown
12:50 AM 42.8 °F 37.5 °F 41.0 °F 93% 29.71 in 6.2 mi SW 9.2 mph - N/A   Unknown
1:20 AM 44.6 °F 39.2 °F 42.8 °F 93% 29.71 in 6.2 mi SSW 10.4 mph - N/A   Unknown
1:50 AM 44.6 °F 38.8 °F 42.8 °F 93% 29.71 in 6.2 mi SW 11.5 mph - N/A   Unknown
2:20 AM 44.6 °F 39.2 °F 42.8 °F 93% 29.68 in 6.2 mi SW 10.4 mph - N/A   Unknown
2:50 AM 44.6 °F 39.2 °F 42.8 °F 93% 29.68 in 6.2 mi SW 10.4 mph - N/A   Unknown
3:20 AM 44.6 °F 39.7 °F 42.8 °F 93% 29.68 in 6.2 mi SW 9.2 mph - N/A   Unknown
3:50 AM 44.6 °F 40.2 °F 42.8 °F 93% 29.68 in 6.2 mi SSW 8.1 mph - N/A   Unknown
4:20 AM 42.8 °F 38.6 °F 41.0 °F 93% 29.68 in - SSW 6.9 mph - N/A   Clear
4:50 AM 42.8 °F 38.6 °F 41.0 °F 93% 29.68 in - SSW 6.9 mph - N/A   Clear
5:20 AM 42.8 °F 38.0 °F 41.0 °F 93% 29.68 in - South 8.1 mph - N/A   Clear
5:50 AM 41.0 °F 36.4 °F 41.0 °F 100% 29.68 in - South 6.9 mph - N/A   Clear
6:20 AM 41.0 °F 36.4 °F 41.0 °F 100% 29.68 in - SSW 6.9 mph - N/A   Clear
6:50 AM 39.2 °F 33.6 °F 39.2 °F 100% 29.65 in - South 8.1 mph - N/A   Clear
7:20 AM 41.0 °F 37.1 °F 39.2 °F 93% 29.65 in 5.6 mi South 5.8 mph - N/A   Unknown
7:50 AM 39.2 °F 34.2 °F 39.2 °F 100% 29.65 in 5.6 mi South 6.9 mph - N/A   Unknown
8:20 AM 41.0 °F 39.0 °F 39.2 °F 93% 29.65 in - South 3.5 mph - N/A   Clear
8:50 AM 42.8 °F 39.3 °F 42.8 °F 100% 29.65 in - SSE 5.8 mph - N/A   Clear
9:20 AM 44.6 °F 40.7 °F 42.8 °F 93% 29.65 in - SSE 6.9 mph - N/A   Clear
9:50 AM 46.4 °F 42.9 °F 44.6 °F 93% 29.65 in - SSE 6.9 mph - N/A   Clear
10:20 AM 46.4 °F 41.9 °F 44.6 °F 93% 29.65 in 6.2 mi South 9.2 mph - N/A   Partly Cloudy
10:50 AM 46.4 °F 42.9 °F 42.8 °F 87% 29.65 in 6.2 mi South 6.9 mph - N/A   Mostly Cloudy
11:20 AM 46.4 °F 43.5 °F 44.6 °F 93% 29.65 in 6.2 mi South 5.8 mph - N/A Rain Light Rain
11:50 AM 46.4 °F 42.9 °F 44.6 °F 93% 29.62 in 5.6 mi South 6.9 mph - N/A Rain Light Rain
12:20 PM 46.4 °F 43.5 °F 44.6 °F 93% 29.62 in 5.6 mi SSW 5.8 mph - N/A Rain Light Rain
12:50 PM 46.4 °F 43.5 °F 44.6 °F 93% 29.62 in 5.6 mi SSW 5.8 mph - N/A Rain Light Rain
1:20 PM 44.6 °F 40.7 °F 42.8 °F 93% 29.59 in 5.6 mi South 6.9 mph - N/A Rain Light Rain
1:50 PM 44.6 °F 41.4 °F 42.8 °F 93% 29.59 in 5.6 mi South 5.8 mph - N/A Rain Light Rain
2:20 PM 44.6 °F 41.4 °F 42.8 °F 93% 29.59 in 5.6 mi SSW 5.8 mph - N/A Rain Light Rain
2:50 PM 44.6 °F 41.4 °F 42.8 °F 93% 29.59 in 5.6 mi SSW 5.8 mph - N/A Rain Light Rain
3:20 PM 44.6 °F 42.2 °F 42.8 °F 93% 29.59 in 5.6 mi SSW 4.6 mph - N/A Rain Light Rain
3:50 PM 44.6 °F 42.2 °F 42.8 °F 93% 29.59 in 5.6 mi WSW 4.6 mph - N/A Rain Light Rain
4:20 PM 44.6 °F 41.4 °F 42.8 °F 93% 29.59 in 5.6 mi WSW 5.8 mph - N/A   Mostly Cloudy
4:50 PM 42.8 °F 40.1 °F 42.8 °F 100% 29.59 in 6.2 mi West 4.6 mph - N/A   Scattered Clouds
5:20 PM 42.8 °F 40.1 °F 42.8 °F 100% 29.59 in 6.2 mi WSW 4.6 mph - N/A   Scattered Clouds
5:50 PM 42.8 °F 39.3 °F 41.0 °F 93% 29.59 in 6.2 mi WSW 5.8 mph - N/A   Partly Cloudy
6:20 PM 42.8 °F 38.6 °F 41.0 °F 93% 29.59 in - WSW 6.9 mph - N/A   Clear
6:50 PM 42.8 °F 38.6 °F 41.0 °F 93% 29.62 in - WSW 6.9 mph - N/A   Clear
7:20 PM 42.8 °F 38.0 °F 41.0 °F 93% 29.62 in 6.2 mi WSW 8.1 mph - N/A   Partly Cloudy
7:50 PM 41.0 °F 35.8 °F 41.0 °F 100% 29.62 in 6.2 mi WSW 8.1 mph - N/A   Partly Cloudy
8:20 PM 41.0 °F 35.2 °F 41.0 °F 100% 29.62 in - WSW 9.2 mph - N/A   Clear
8:50 PM 41.0 °F 36.4 °F 41.0 °F 100% 29.62 in - WSW 6.9 mph - N/A   Clear
9:20 PM 41.0 °F 35.8 °F 39.2 °F 93% 29.65 in - WSW 8.1 mph - N/A   Clear
9:50 PM 41.0 °F 35.8 °F 39.2 °F 93% 29.65 in - WSW 8.1 mph - N/A   Clear
10:20 PM 41.0 °F 36.4 °F 39.2 °F 93% 29.65 in - WSW 6.9 mph - N/A   Clear
10:50 PM 39.2 °F 33.6 °F 39.2 °F 100% 29.65 in - SW 8.1 mph - N/A   Clear
11:20 PM 39.2 °F 35.0 °F 37.4 °F 93% 29.68 in - WSW 5.8 mph - N/A   Clear
11:50 PM 39.2 °F 35.0 °F 37.4 °F 93% 29.68 in - SW 5.8 mph - N/A   Clear